Time,TemperatureF,DewpointF,PressureIn,WindDirection,WindDirectionDegrees,WindSpeedMPH,WindSpeedGustMPH,Humidity,HourlyPrecipIn,Conditions,Clouds,dailyrainin,SoftwareType,DateUTC
2013-09-03 05:45:00,60.9,58.6,29.86,SE,138,0.0,24.0,92,0.00,,,0.00,Wunderground v.1.15,2013-09-03 09:45:00,
2013-09-03 05:50:00,60.9,58.6,29.86,SE,138,0.0,24.0,92,0.00,,,0.00,Wunderground v.1.15,2013-09-03 09:50:00,
2013-09-03 05:55:00,60.9,58.6,29.87,SE,138,0.0,24.0,92,0.00,,,0.00,Wunderground v.1.15,2013-09-03 09:55:00,
2013-09-03 06:00:00,60.9,58.6,29.87,SE,138,0.0,24.0,92,0.00,,,0.00,Wunderground v.1.15,2013-09-03 10:00:00,
2013-09-03 06:05:00,60.9,58.6,29.87,SE,138,0.0,24.0,92,0.00,,,0.00,Wunderground v.1.15,2013-09-03 10:05:00,
2013-09-03 06:10:00,60.9,58.9,29.87,SE,138,0.0,0.0,93,0.00,,,0.00,Wunderground v.1.15,2013-09-03 10:10:00,
2013-09-03 06:15:00,60.9,58.9,29.87,SE,138,0.0,0.0,93,0.00,,,0.00,Wunderground v.1.15,2013-09-03 10:15:00,
2013-09-03 06:20:00,60.9,58.9,29.87,SE,138,0.0,0.0,93,0.00,,,0.00,Wunderground v.1.15,2013-09-03 10:20:00,
2013-09-03 06:25:00,60.9,58.9,29.87,SE,138,0.0,0.0,93,0.00,,,0.00,Wunderground v.1.15,2013-09-03 10:25:00,
2013-09-03 06:30:00,60.9,58.9,29.87,SE,138,0.0,0.0,93,0.00,,,0.00,Wunderground v.1.15,2013-09-03 10:30:00,
2013-09-03 06:35:00,60.9,58.9,29.87,SE,138,0.0,0.0,93,0.00,,,0.00,Wunderground v.1.15,2013-09-03 10:35:00,
2013-09-03 06:40:00,61.0,59.0,29.87,SE,138,0.0,0.0,93,0.00,,,0.00,Wunderground v.1.15,2013-09-03 10:40:00,
2013-09-03 06:45:00,61.0,59.0,29.88,SE,138,0.0,0.0,93,0.00,,,0.00,Wunderground v.1.15,2013-09-03 10:45:00,
2013-09-03 06:50:00,61.0,59.0,29.88,SE,138,0.0,0.0,93,0.00,,,0.00,Wunderground v.1.15,2013-09-03 10:50:00,
2013-09-03 06:55:00,61.0,59.0,29.88,SE,138,0.0,0.0,93,0.00,,,0.00,Wunderground v.1.15,2013-09-03 10:55:00,
2013-09-03 07:00:00,61.0,59.0,29.88,SE,138,0.0,0.0,93,0.00,,,0.00,Wunderground v.1.15,2013-09-03 11:00:00,
2013-09-03 07:05:00,61.1,59.1,29.88,SE,138,0.0,0.0,93,0.00,,,0.00,Wunderground v.1.15,2013-09-03 11:05:00,
2013-09-03 07:10:00,61.2,59.5,29.88,SE,138,0.0,0.0,94,0.00,,,0.00,Wunderground v.1.15,2013-09-03 11:10:00,
2013-09-03 07:15:00,61.2,59.2,29.88,SE,138,0.0,0.0,93,0.00,,,0.00,Wunderground v.1.15,2013-09-03 11:15:00,
2013-09-03 07:20:00,61.2,59.2,29.88,SE,138,0.0,0.0,93,0.00,,,0.00,Wunderground v.1.15,2013-09-03 11:20:00,
2013-09-03 07:25:00,61.2,59.2,29.88,SE,138,0.0,0.0,93,0.00,,,0.00,Wunderground v.1.15,2013-09-03 11:25:00,
2013-09-03 07:30:00,61.4,59.4,29.88,SE,138,0.0,0.0,93,0.00,,,0.00,Wunderground v.1.15,2013-09-03 11:30:00,
2013-09-03 07:35:00,61.6,59.3,29.89,SE,138,0.0,0.0,92,0.00,,,0.00,Wunderground v.1.15,2013-09-03 11:35:00,
2013-09-03 07:40:00,61.8,59.5,29.89,SE,142,0.0,0.0,92,0.00,,,0.00,Wunderground v.1.15,2013-09-03 11:40:00,
2013-09-03 07:45:00,62.0,59.3,29.89,SE,142,0.0,0.0,91,0.00,,,0.00,Wunderground v.1.15,2013-09-03 11:45:00,
2013-09-03 07:50:00,62.1,59.4,29.89,SE,144,0.0,1.0,91,0.00,,,0.00,Wunderground v.1.15,2013-09-03 11:50:00,
2013-09-03 07:55:00,62.0,59.0,29.89,SE,140,0.0,2.0,90,0.00,,,0.00,Wunderground v.1.15,2013-09-03 11:55:00,
2013-09-03 08:00:00,62.0,59.3,29.90,SE,143,1.0,1.0,91,0.00,,,0.00,Wunderground v.1.15,2013-09-03 12:00:00,
2013-09-03 08:05:00,62.2,59.5,29.89,ESE,115,1.0,2.0,91,0.00,,,0.00,Wunderground v.1.15,2013-09-03 12:05:00,
2013-09-03 08:10:00,62.3,59.3,29.89,ESE,111,1.0,1.0,90,0.00,,,0.00,Wunderground v.1.15,2013-09-03 12:10:00,